,

(GMT )
Al Udeid

Weather History for KQIR - December, 2012

Change the Weather History Date:

Friday, December 7, 2012

  Actual Average Record
Temperature  
Mean Temperature 71 °F -  
Max Temperature 82 °F - - ()
Min Temperature 60 °F - - ()
Cooling Degree Days 6    
Growing Degree Days 21 (Base 50)    
Moisture  
Dew Point 62 °F    
Average Humidity 90    
Maximum Humidity 100    
Minimum Humidity 39    
Precipitation  
Precipitation 0.00 in - - ()
Sea Level Pressure  
Sea Level Pressure 30.06 in    
Wind  
Wind Speed 3 mph ()    
Max Wind Speed 9 mph    
Max Gust Speed -    
Visibility 2.7 miles    
Events Fog    
Averages and records for this station are not official NWS values.
T = Trace of Precipitation, MM = Missing Value Source: Averaged Metar Reports

Daily Weather History Graph

Daily Weather History Graph

Search for Another Location

Airport or City:

Trip Planner

Search our weather history database for the weather conditions in past years. The results will help you decide how hot, cold, wet, or windy it might be!

Date:

Astronomy

Dec. 07, 2012 Rise Set
Actual Time 6:07 AM +03 4:45 PM +03
Civil Twilight 5:42 AM +03 5:10 PM +03
Nautical Twilight 5:14 AM +03 5:38 PM +03
Astronomical Twilight 4:46 AM +03 6:06 PM +03
Moon No Moon Rise 11:57 AM +03 (12/7)
Length of Visible Light 11h 27m
Length of Day
10h 37m
Last Quarter, 42% of the Moon is Illuminated
Dec 7
Last Quarter
Dec 13
New
Dec 20
First Quarter
Dec 28
Full
Jan 5
Last Quarter

Hourly Weather History & Observations

Time (+03) Temp. Heat Index Dew Point Humidity Pressure Visibility Wind Dir Wind Speed Gust Speed Precip Events Conditions
12:14 AM 64.4 °F - 62.6 °F 94% 30.02 in 0.2 mi East 2.3 mph - N/A Fog Fog
12:27 AM 66.2 °F - 64.4 °F 94% 30.02 in - ENE 2.3 mph - N/A Fog Fog
12:35 AM 66.2 °F - 64.4 °F 94% 30.02 in - East 2.3 mph - N/A Fog Fog
12:40 AM 64.4 °F - 64.4 °F 100% 30.01 in - East 3.5 mph - N/A Fog Fog
12:52 AM 66.2 °F - 64.4 °F 94% 30.03 in - Calm Calm - N/A Fog Fog
12:55 AM 65.1 °F - 64.6 °F 98% 30.03 in - Calm Calm - N/A Fog Fog
1:00 AM 64.4 °F - 64.4 °F 100% 30.03 in - Calm Calm - N/A Fog Fog
1:04 AM 64.4 °F - 64.4 °F 100% 30.02 in - Calm Calm - N/A Fog Fog
1:55 AM 62.4 °F - 62.2 °F 99% 30.02 in 0.1 mi NW 3.5 mph - N/A Fog Fog
1:58 AM 62.6 °F - 62.6 °F 100% 30.02 in 0.1 mi NW 3.5 mph - N/A Fog Fog
2:10 AM 62.6 °F - 62.6 °F 100% 30.02 in 0.1 mi NW 3.5 mph - N/A Fog Fog
2:46 AM 60.8 °F - 60.8 °F 100% 30.02 in - WNW 5.8 mph - N/A Fog Fog
2:55 AM 60.8 °F - 60.3 °F 98% 30.02 in 0.1 mi West 3.5 mph - N/A Fog Fog
2:57 AM 60.8 °F - 60.8 °F 100% 30.02 in 0.1 mi West 4.6 mph - N/A Fog Fog
3:03 AM 60.8 °F - 60.8 °F 100% 30.02 in - WNW 4.6 mph - N/A Fog Fog
3:18 AM 60.8 °F - 60.8 °F 100% 30.01 in 0.1 mi WNW 4.6 mph - N/A Fog Fog
3:24 AM 62.6 °F - 60.8 °F 94% 30.02 in 0.1 mi WNW 3.5 mph - N/A Fog Fog
3:55 AM 61.9 °F - 61.3 °F 98% 30.02 in - NW 3.5 mph - N/A Fog Fog
4:21 AM 62.6 °F - 60.8 °F 94% 30.02 in 0.1 mi Calm Calm - N/A Fog Fog
4:38 AM 60.8 °F - 60.8 °F 100% 30.04 in 0.1 mi Calm Calm - N/A Fog Fog
4:55 AM 61.3 °F - 60.8 °F 98% 30.05 in - NW 4.6 mph - N/A Fog Fog
5:02 AM 60.8 °F - 60.8 °F 100% 30.05 in - WNW 3.5 mph - N/A Fog Fog
5:08 AM 60.8 °F - 60.8 °F 100% 30.05 in - WNW 3.5 mph - N/A Fog Fog
5:23 AM 60.8 °F - 60.8 °F 100% 30.05 in - NNW 4.6 mph - N/A Fog Fog
5:32 AM 60.8 °F - 60.8 °F 100% 30.06 in 0.2 mi NW 4.6 mph - N/A Fog Fog
5:35 AM 60.8 °F - 60.8 °F 100% 30.06 in 0.5 mi WNW 4.6 mph - N/A Fog Fog
5:43 AM 60.8 °F - 60.8 °F 100% 30.06 in 0.1 mi WNW 4.6 mph - N/A Fog Fog
5:48 AM 60.8 °F - 60.8 °F 100% 30.06 in - NW 4.6 mph - N/A Fog Fog
5:55 AM 61.3 °F - 60.4 °F 97% 30.07 in - WNW 3.5 mph - N/A Fog Fog
6:04 AM 60.8 °F - 60.8 °F 100% 30.07 in - Calm Calm - N/A Fog Fog
6:11 AM 60.8 °F - 60.8 °F 100% 30.08 in - WNW 4.6 mph - N/A Fog Fog
6:45 AM 60.8 °F - 60.8 °F 100% 30.07 in 0.1 mi NNW 3.5 mph - N/A Fog Fog
6:55 AM 62.1 °F - 61.2 °F 97% 30.09 in 0.1 mi North 4.6 mph - N/A Fog Fog
7:04 AM 62.6 °F - 60.8 °F 94% 30.08 in 0.1 mi NNW 4.6 mph - N/A Fog Fog
7:23 AM 62.6 °F - 62.6 °F 100% 30.09 in 0.1 mi NW 4.6 mph - N/A Fog Fog
7:43 AM 62.6 °F - 60.8 °F 94% 30.09 in 0.2 mi NW 3.5 mph - N/A Fog Fog
7:55 AM 62.4 °F - 61.7 °F 97% 30.11 in 0.2 mi NNW 3.5 mph - N/A Fog Fog
8:07 AM 62.6 °F - 62.6 °F 100% 30.11 in 0.5 mi NNW 5.8 mph - N/A Fog Fog
8:18 AM 64.4 °F - 62.6 °F 94% 30.10 in 0.5 mi NNW 2.3 mph - N/A Fog Fog
8:34 AM 64.4 °F - 64.4 °F 100% 30.12 in 0.7 mi Calm Calm - N/A   Partly Cloudy
8:38 AM 66.2 °F - 64.4 °F 94% 30.12 in 1.7 mi Calm Calm - N/A   Partly Cloudy
8:40 AM 66.2 °F - 64.4 °F 94% 30.12 in - Calm Calm - N/A   Partly Cloudy
8:55 AM 67.1 °F - 66.4 °F 98% 30.12 in 6.2 mi NNW 4.6 mph - N/A   Clear
9:55 AM 72.0 °F - 70.9 °F 96% 30.12 in 6.2 mi Calm Calm - N/A   Clear
10:55 AM 74.5 °F - 68.7 °F 82% 30.09 in 6.2 mi Calm Calm - N/A   Clear
11:55 AM 80.6 °F 81.1 °F 59.0 °F 48% 30.06 in 6.2 mi SE 5.8 mph - N/A   Clear
12:55 PM 81.0 °F 81.0 °F 57.4 °F 44% 30.03 in 6.2 mi Calm Calm - N/A   Clear
1:55 PM 82.6 °F 81.8 °F 55.0 °F 39% 30.03 in 6.2 mi West 4.6 mph - N/A   Clear
2:55 PM 81.5 °F 82.1 °F 60.4 °F 49% 30.03 in 6.2 mi ESE 4.6 mph - N/A   Clear
3:55 PM 79.9 °F - 61.2 °F 53% 30.04 in 6.2 mi East 6.9 mph - N/A   Clear
4:55 PM 77.4 °F - 62.6 °F 60% 30.05 in 6.2 mi East 9.2 mph - N/A   Clear
5:55 PM 75.0 °F - 65.1 °F 71% 30.06 in 6.2 mi East 8.1 mph - N/A   Clear
6:55 PM 73.9 °F - 66.7 °F 78% 30.08 in 6.2 mi East 5.8 mph - N/A   Clear
7:55 PM 72.9 °F - 66.9 °F 82% 30.08 in 6.2 mi Calm Calm - N/A   Clear
8:55 PM 72.0 °F - 66.2 °F 82% 30.08 in 6.2 mi North 3.5 mph - N/A   Clear
9:55 PM 71.4 °F - 64.9 °F 80% 30.08 in 6.2 mi Calm Calm - N/A   Clear
10:55 PM 69.1 °F - 63.1 °F 81% 30.07 in 6.2 mi North 3.5 mph - N/A   Clear
11:55 PM 69.6 °F - 64.4 °F 83% 30.05 in 6.2 mi NNE 4.6 mph - N/A   Clear